World > North America > United States > Texas > Teague   City of Teague, TX

Teague, TX Hourly Weather Updates

Feedback E-mail the Weather

Quick Clicks

Teague, TX Weather Maps

°F °C°F °C
Teague Weather Map
UTC Time: 5/26/2024, 02:19
Your Time:

Teague, TX Regional Weather

Expires:202405260300;;872862
ASUS44 KFWD 260215
RWRTX 
NORTH TEXAS HOURLY WEATHER ROUNDUP
NATIONAL WEATHER SERVICE FORT WORTH TX
900 PM CDT SAT MAY 25 2024

NOTE: "FAIR" INDICATES FEW OR NO CLOUDS BELOW 12,000 FEET WITH NO
SIGNIFICANT WEATHER AND/OR OBSTRUCTIONS TO VISIBILITY.


TXZ143>147-156>162-174-175-260300-
CENTRAL TEXAS
  
CITY           SKY/WX    TMP DP  RH WIND       PRES   REMARKS
WACO           FAIR      86  72  62 SE14      29.68S HX  92           
WACO-TSTC      CLEAR     86  70  58 SE13      29.69F HX  90           
WACO-MCGREGOR    N/A     86  73  65 SE16G24   29.69F HX  93           
HILLSBORO      FAIR      84  78  81 SE13      29.67F HX  95           
CORSICANA      MOCLDY    85  78  80 SE12      29.70F HX  96           
HEARNE         FAIR      86  74  67 SE9       29.73R HX  95           
CAMERON        FAIR      85  73  67 S8        29.72R HX  91           
TEMPLE         FAIR      86  74  67 MISG      29.70R HX  94           
KILLEEN        FAIR      86  73  63 SE16G29   29.69R HX  93           
FORT CAVAZOS   FAIR      87  74  66 SE16G23   29.70R HX  95           
GATESVILLE     FAIR      86  79  79 VRB7G13   29.70R HX  99           
HAMILTON       FAIR      85  74  70 SE15      29.69S HX  93           
$$


SKY/WX - Weather  TMP - Temperature  DP - Dew Point  RH - Humidity
WIND - Wind Direction/Speed PRES - Barometric Pressure VSB - Visibility
WCI - Wind Chill Index E13G22 Wind - East Wind 13 mph/Gusts of 22 mph

Trending Headlines

Trending Entertainment Headlines

Teague Radar Loop

Use the map search tool if you want to place a location marker on the radar map...

Teague Quick Facts

National Two Day Weather Forecast


E-mail the Teague Weather Forecast

Voice your opinion or tell us about page issues...